Location: Banksville Park
(38.5557°N, 75.1182°W)
Time: 02:18:59
(UTC+00:00)

Cosmos 2084 Rocket - Pass Details

Date: 19 September 2020
Orbit: 545 x 636 km, 62.8° (Epoch: 30 October)

Event Time Altitude Azimuth Distance (km) Brightness Sun altitude
Rises 23:59:53 0° 328° (NNW) 2,865 7.7 -11.9°
Reaches altitude 10° 00:02:08 10° 331° (NNW) 1,972 6.7 -12.3°
Maximum altitude 00:06:36 70° 55° (NE) 665 3.5 -13.2°
Enters shadow 00:10:10 16° 137° (SE) 1,627 5.2 -13.8°
